Location: Skalnate Pleso
(49.1889°N, 20.2450°E)
Time: 14:46:18
(UTC+01:00)

RESURS DK-1 - Pass Details

Date: 19 November 2019
Orbit: 557 x 562 km, 69.9° (Epoch: 05 December)

Event Time Altitude Azimuth Distance (km) Brightness Sun altitude
Exits shadow 05:40:52 - 338° (NNW) 2,280 5.1 -11.9°
Reaches altitude 10° 05:41:59 10° 343° (NNW) 1,858 4.7 -11.8°
Maximum altitude 05:45:50 36° 52° (NE) 895 3.7 -11.1°
Drops below altitude 10° 05:49:41 10° 120° (ESE) 1,849 6.5 -10.5°
Sets 05:52:01 0° 129° (SE) 2,741 7.4 -10.2°
